Hourly Data Report for December 18, 2016

TORONTO CITY
ONTARIO

43°40'00.000" N
79°24'00.000" W
112.50 m
6158355
71508
XTO

Download Data

Hourly Data (December 2016)
Hourly Data Report for December 18, 2016
TIME
LST
Temp Definition
°C
Dew Point Definition
°C
Rel Hum Definition
%
Precip. Amount Definition
mm

Wind Dir Definition
10's deg

Wind Spd Definition
km/h
Visibility Definition
km
Stn Press Definition
kPa
Hmdx Definition


Wind Chill Definition


Weather Definition


00:00 0.0 -1.3 91 0.7 LegendMM LegendMM   99.00     LegendNANA
01:00 -0.1 -1.7 89 0.2 LegendMM LegendMM   98.92     LegendNANA
02:00 -0.5 -2.5 86 0.0 LegendMM LegendMM   98.97     LegendNANA
03:00 -1.0 -3.5 83 0.0 LegendMM LegendMM   98.98     LegendNANA
04:00 -1.3 -3.8 83 0.3 LegendMM LegendMM   99.00     LegendNANA
05:00 -1.7 -3.0 91 1.6 LegendMM LegendMM   99.06     LegendNANA
06:00 -1.7 -3.2 89 0.0 LegendMM LegendMM   99.08     LegendNANA
07:00 -1.8 -5.0 79 0.0 LegendMM LegendMM   99.33     LegendNANA
08:00 -3.0 -7.2 73 0.0 LegendMM LegendMM   99.56     LegendNANA
09:00 -3.3 -7.8 71 0.0 LegendMM LegendMM   99.87     LegendNANA
10:00 -3.8 -9.2 66 0.0 LegendMM LegendMM   100.10     LegendNANA
11:00 -3.8 -11.0 57 0.0 LegendMM LegendMM   100.38     LegendNANA
12:00 -4.2 -11.6 56 0.0 LegendMM LegendMM   100.56     LegendNANA
13:00 -4.4 -12.6 53 0.0 LegendMM LegendMM   100.72     LegendNANA
14:00 -5.4 -13.0 55 0.0 LegendMM LegendMM   100.92     LegendNANA
15:00 -7.0 -14.6 54 0.0 LegendMM LegendMM   101.14     LegendNANA
16:00 -7.7 -15.3 54 0.0 LegendMM LegendMM   101.33     LegendNANA
17:00 -8.7 -16.1 55 0.0 LegendMM LegendMM   101.52     LegendNANA
18:00 -9.4 -16.4 57 0.0 LegendMM LegendMM   101.68     LegendNANA
19:00 -9.7 -15.8 61 0.0 LegendMM LegendMM   101.82     LegendNANA
20:00 -9.8 -15.3 64 0.0 LegendMM LegendMM   101.95     LegendNANA
21:00 -10.1 -15.1 67 0.0 LegendMM LegendMM   102.06     LegendNANA
22:00 -9.7 -14.8 67 0.0 LegendMM LegendMM   102.10     LegendNANA
23:00 -8.7 -14.0 66 0.0 LegendMM LegendMM   102.18     LegendNANA

Notes on Data Quality.

Legend

  • E = Estimated
  • M = Missing
  • NA = Not Available*
  • [empty] = Indicates an unobserved value
Date modified: